Regional Weather Roundup
Issued by NWS

Home | Current Version | Previous Version | Text Only | Print | Product List | Glossary Off
Versions: 1 2 3 4 5 6 7 8 9 10 11 12 13 14 15 16 17 18 19 20 21 22 23 24 25 26 27 28 29 30 31 32 33 34 35 36 37 38 39 40 41 42 43 44 45 46 47 48 49 50

000
ASUS43 KDMX 192001
RWRIA

WEATHER ROUNDUP FOR IOWA
NATIONAL WEATHER SERVICE DES MOINES IA
200 PM CST FRI JAN 19 2018

NOTE: "FAIR" INDICATES FEW OR NO CLOUDS BELOW 12,000 FEET WITH NO
SIGNIFICANT WEATHER AND/OR OBSTRUCTIONS TO VISIBILITY.

* - THESE STATIONS ARE NOT NWS STATIONS...THUS NOT UNDER NWS
QUALITY CONTROL.  THEY ALSO DO NOT REPORT WEATHER SUCH
AS PRECIPITATION OR FOG.

IAZ001>003-012>014-020>022-031>034-043>046-192100-
   NORTHWEST IOWA

CITY           SKY/WX    TMP DP  RH WIND       PRES   REMARKS
CARROLL *      CLOUDY    43  30  61 SW21G29   29.58F
CHEROKEE *     CLOUDY    49  28  43 SW10G18   29.56S
DENISON *      CLOUDY    43  30  61 S12G17    29.63S
LE MARS *      CLOUDY    54  30  40 SW14      29.55S
ORANGE CITY *  CLOUDY    52  34  50 SW10      29.54F
SHELDON *      CLOUDY    50  32  50 SW14G21   29.52S
SIOUX CITY     CLOUDY    56  30  37 S7        29.57F
SPENCER        CLOUDY    50  29  44 SW17      29.54S
STORM LAKE *   CLOUDY    50  28  43 SW16G22   29.56F
$$

IAZ055>058-069>071-079>083-090>094-192100-
   SOUTHWEST IOWA

CITY           SKY/WX    TMP DP  RH WIND       PRES   REMARKS
ATLANTIC *     CLOUDY    43  32  65 S17       29.66F
AUDUBON *      CLOUDY    43  30  61 S15G23    29.64F
CLARINDA *     CLOUDY    43  30  61 S9G17       N/A
COUNCIL BLFS * CLOUDY    43  28  56 S14       29.65F
CRESTON *      CLOUDY    45  30  57 S13       29.71F
HARLAN  *      CLOUDY    39  30  70 S17       29.67F WCI  30
LAMONI         CLOUDY    47  26  44 S17       29.73F
RED OAK *      CLOUDY    45  32  61 S14       29.70F
SHENANDOAH *   CLOUDY    46  32  57 S9        29.71F
$$

IAZ047>049-059>061-072>074-084-192100-
   CENTRAL IOWA

CITY           SKY/WX    TMP DP  RH WIND       PRES   REMARKS
AMES           CLOUDY    43  31  62 S15G25    29.63F
ANKENY *       CLOUDY    46  27  46 SW14      29.67F
BOONE *        CLOUDY    43  28  56 SW15G23   29.60F
CHARITON *     CLOUDY    45  28  53 S15       29.71F
DES MOINES     CLOUDY    46  27  47 SW16      29.68F
GRINNELL*      CLOUDY    42  29  59 S15       29.70F
KNOXVILLE *    CLOUDY    45  25  45 SW14      29.69F
MARSHALLTOWN   CLOUDY    44  28  53 S16       29.64F
NEWTON *       CLOUDY    45  28  53 S16G24    29.68F
PELLA *        CLOUDY    44  26  48 SW12G20   29.72F
PERRY *          N/A     43  30  60 S18       29.63F
$$

IAZ004>006-015-016-023>025-035-036-192100-
   NORTH CENTRAL IOWA

CITY           SKY/WX    TMP DP  RH WIND       PRES   REMARKS
ALGONA *       CLOUDY    41 N/A N/A S17G23    29.53F
CLARION *      CLOUDY    43  34  70 SW17      29.57F
ESTHERVILLE    CLOUDY    48  32  53 SW13      29.51F
FORT DODGE *   CLOUDY    41  31  67 SW14G22   29.59F
MASON CITY     CLOUDY    42  30  62 SW20G26   29.56F
FOREST CITY *    N/A     41  32  70 SW15      29.54F
WEBSTER CITY * CLOUDY    43  30  61 S15G21    29.57F
IOWA FALLS *     N/A     42  32  68 S23       29.60F
$$

IAZ007>011-017>019-026>030-037>042-050>054-066-192100-
   NORTHEAST IOWA

CITY           SKY/WX    TMP DP  RH WIND       PRES   REMARKS
CEDAR RAPIDS     N/A     44  28  53 S16       29.69F
CHARLES CITY *   N/A     39  34  81 S16       29.58F WCI  30
CLINTON *        N/A     41  29  62 SW10      29.75F
DECORAH *        N/A     39  28  65 S10G17    29.58F WCI  32
DUBUQUE          N/A     39  26  59 S20       29.67F WCI  29
MONTICELLO *     N/A     43  28  56 S14       29.69F
OELWEIN *        N/A     41  34  75 S17       29.63F
WATERLOO         N/A     44  28  53 S18       29.62F
$$

IAZ064-065-067-068-078-192100-
   EAST CENTRAL IOWA

CITY           SKY/WX    TMP DP  RH WIND       PRES   REMARKS
DAVENPORT        N/A     43  25  49 S14       29.77F
IOWA CITY        N/A     45  26  47 S10       29.75F
MT. PLEASANT * CLOUDY    43  28  56 S16       29.77S
MUSCATINE *      N/A     45  27  49 S16       29.77S
QUAD CITIES      N/A     43  27  53 SW16G23   29.75F
$$

IAZ062-063-075>077-085>089-095>099-192100-
   SOUTHEAST IOWA

CITY           SKY/WX    TMP DP  RH WIND       PRES   REMARKS
BURLINGTON     CLOUDY    43  27  53 S18G29    29.78F
FAIRFIELD *    CLOUDY    45  27  49 S15       29.75S
FORT MADISON * CLOUDY    45  27  49 S18       29.79F
KEOKUK *       CLOUDY    46  27  46 S13G21    29.79F
OSKALOOSA *      N/A     44  29  55 SW12      29.73F
OTTUMWA        CLOUDY    46  25  43 S17G23    29.73S
WASHINGTON *   CLOUDY    43  28  56 S17G23    29.76S
$$

ABBREVIATIONS USED IN REMARKS
   TC - TEMPERATURES IN CELSIUS
  WCI - WIND CHILL INDEX
   HX - HEAT INDEX
  VSB - VISIBILITY
$$





USA.gov is the U.S. government's official web portal to all federal, state and local government web resources and services.